Weerstation Grootegast  Weerstation Grootegast


15 daagse weersverwachting Cobh (IE)

  • Overzicht
  • Per uur
  • 15 dagen
  • Extra
  • Vergelijk
  • Kaarten
  • Dagkaart
  • Meer »
  • Info
  • Statistieken
  • Directe link
    Temp 6h Neerslag Wind  
 05:44     21:36    Daglengte: 15:52 Vandaag
07:00
17°
 
5
13:00
19°
 
6
19:00
18°
 
5
 05:46     21:35    Daglengte: 15:49 Morgen
01:00
17°
 
4
07:00
16°
4.1 mm
3
13:00
18°
 
5
19:00
18°
5.2 mm
6
 05:47     21:33    Daglengte: 15:46 Donderdag 25 Jul
01:00
17°
3.8 mm
7
07:00
18°
1.9 mm
8
13:00
18°
17.2 mm
8
19:00
18°
 
8
 05:49     21:32    Daglengte: 15:43 Vrijdag 26 Jul
01:00
17°
 
7
Locatie info
Region: Cork
Latitude: 51.8493°N
Longitude: -8.2980°E
66 masl
Postcode: -1
Temp/Neerslag /Baro Onweer/Dauwpunt
    Temp Baro 1h Neerslag Dauwpunt Wind UV Bewolking  
 05:44     21:36    Daglengte: 15:52 Vandaag
07:00
17°
1015.1 hPa
11%
16.0°
5
Windvlaag: 4.9 m/s
55%
08:00
17°
1015.1 hPa   15.6°
6
Windvlaag: 4.6 m/s
79%
09:00
18°
1015.0 hPa   15.5°
6
Windvlaag: 4.8 m/s
84%
10:00
18°
1015.0 hPa   15.6°
6
Windvlaag: 4.7 m/s
84%
11:00
18°
1014.7 hPa   15.7°
6
Windvlaag: 4.6 m/s
68%
12:00
19°
1014.4 hPa   15.4°
6
Windvlaag: 4.5 m/s
44%
13:00
19°
1013.9 hPa   15.6°
6
Windvlaag: 4.6 m/s
17%
14:00
19°
1013.3 hPa   15.7°
6
Windvlaag: 4.6 m/s
30%
15:00
19°
1012.8 hPa   15.6°
6
Windvlaag: 4.4 m/s
38%
16:00
19°
1012.0 hPa   15.9°
5
Windvlaag: 4.3 m/s
45%
17:00
19°
1011.5 hPa   15.8°
5
Windvlaag: 4.2 m/s
75%
18:00
18°
1010.9 hPa   15.6°
5
Windvlaag: 4.1 m/s
69%
19:00
18°
1010.2 hPa   16.0°
5
Windvlaag: 3.6 m/s
84%
20:00
18°
1009.6 hPa   16.2°
5
Windvlaag: 3.7 m/s
59%
21:00
17°
1009.4 hPa   16.2°
4
Windvlaag: 3.9 m/s
73%
22:00
17°
1009.5 hPa   15.9°
4
Windvlaag: 3.4 m/s
78%
23:00
17°
1009.1 hPa
20%
15.9°
4
Windvlaag: 3.6 m/s
68%
 05:46     21:35    Daglengte: 15:49 Morgen
00:00
17°
1008.8 hPa
67%
15.8°
4
Windvlaag: 4.1 m/s
76%
01:00
17°
1008.4 hPa
38%
15.8°
4
Windvlaag: 4.9 m/s
80%
02:00
17°
1008.2 hPa 1.2 mm
82%
16.0°
5
Windvlaag: 4.4 m/s
88%
03:00
17°
1007.8 hPa 1.2 mm
82%
15.8°
4
Windvlaag: 4.1 m/s
56%
04:00
17°
1007.7 hPa 1.7 mm
69%
15.6°
4
Windvlaag: 3.8 m/s
68%
05:00
16°
1007.8 hPa
15%
15.6°
3
Windvlaag: 3.6 m/s
64%
06:00
16°
1008.0 hPa
14%
15.5°
2
Windvlaag: 1.1 m/s
60%
07:00
16°
1008.4 hPa
14%
15.5°
3
Windvlaag: 1.2 m/s
75%
08:00
17°
1008.8 hPa
15%
15.2°
3
Windvlaag: 1.6 m/s
80%
09:00
17°
1009.5 hPa
18%
15.0°
4
Windvlaag: 2.4 m/s
77%
10:00
18°
1009.8 hPa
20%
14.8°
4
Windvlaag: 2.6 m/s
74%
11:00
18°
1009.9 hPa
14%
14.9°
4
Windvlaag: 2.9 m/s
80%
12:00
18°
1010.0 hPa
32%
14.8°
5
Windvlaag: 3.7 m/s
85%
13:00
18°
1009.9 hPa
25%
15.2°
5
Windvlaag: 3.7 m/s
84%
14:00
18°
1010.0 hPa 1.8 mm
31%
15.4°
6
Windvlaag: 4.1 m/s
88%
15:00
18°
1009.8 hPa 1.7 mm
71%
15.4°
6
Windvlaag: 4.2 m/s
89%
16:00
18°
1009.5 hPa
26%
15.5°
6
Windvlaag: 4.4 m/s
89%
17:00
18°
1009.3 hPa 1.7 mm
24%
15.5°
6
Windvlaag: 4.6 m/s
85%
18:00
18°
1009.1 hPa
60%
15.3°
6
Windvlaag: 4.7 m/s
81%
19:00
18°
1008.8 hPa
15%
15.5°
6
Windvlaag: 4.1 m/s
84%
20:00
17°
1008.4 hPa
18%
16.0°
6
Windvlaag: 4.2 m/s
86%
21:00
17°
1008.1 hPa
66%
15.9°
6
Windvlaag: 4.2 m/s
70%
22:00
17°
1008.2 hPa
77%
15.7°
6
Windvlaag: 4.7 m/s
83%
23:00
17°
1007.9 hPa
80%
15.7°
7
Windvlaag: 5.2 m/s
68%
 05:47     21:33    Daglengte: 15:46 Donderdag 25 Jul
00:00
17°
1007.5 hPa 1.8 mm
82%
15.9°
7
Windvlaag: 5.4 m/s
72%
01:00
17°
1006.8 hPa 2.0 mm
82%
15.8°
7
Windvlaag: 5.5 m/s
73%
02:00
17°
1006.2 hPa
72%
16.0°
7
Windvlaag: 5.9 m/s
81%
03:00
17°
1005.3 hPa 1.9 mm
19%
16.3°
7
Windvlaag: 5.4 m/s
80%
04:00
18°
1004.2 hPa
21%
16.6°
8
Windvlaag: 6.1 m/s
99%
05:00
18°
1003.8 hPa
21%
16.8°
9
Windvlaag: 6.4 m/s
99%
06:00
18°
1003.5 hPa
27%
16.9°
8
Windvlaag: 6.5 m/s
97%
07:00
18°
1003.3 hPa
80%
17.1°
8
Windvlaag: 6.3 m/s
98%
08:00
18°
1003.0 hPa 3.1 mm
89%
17.0°
8
Windvlaag: 6.7 m/s
99%
09:00
18°
1002.9 hPa 4.0 mm
45%
17.2°
9
Windvlaag: 7.2 m/s
100%
10:00
18°
1002.9 hPa 3.3 mm
70%
17.1°
9
Windvlaag: 6.7 m/s
100%
11:00
18°
1002.9 hPa 3.2 mm
82%
17.2°
8
Windvlaag: 6.9 m/s
90%
12:00
19°
1002.9 hPa 3.6 mm
88%
17.2°
9
Windvlaag: 6.7 m/s
96%
13:00
18°
1002.9 hPa
93%
16.8°
8
Windvlaag: 6.9 m/s
92%
14:00
19°
1002.8 hPa
79%
17.4°
8
Windvlaag: 6.8 m/s
84%
15:00
19°
1002.8 hPa
86%
16.9°
8
Windvlaag: 6.5 m/s
81%
16:00
19°
1002.6 hPa
82%
16.3°
9
Windvlaag: 6.2 m/s
72%
17:00
19°
1002.5 hPa
25%
16.4°
9
Windvlaag: 6 m/s
67%
18:00
19°
1002.6 hPa
70%
16.4°
9
Windvlaag: 6 m/s
53%
19:00
18°
1002.5 hPa
87%
16.4°
8
Windvlaag: 6.1 m/s
51%
20:00
18°
1002.7 hPa
72%
16.3°
8
Windvlaag: 12.5 m/s
56%
21:00
18°
1002.8 hPa
74%
16.2°
8
Windvlaag: 12.4 m/s
63%
22:00
18°
1002.9 hPa
82%
16.3°
8
Windvlaag: 13.2 m/s
71%
23:00
17°
1003.0 hPa
83%
16.2°
7
Windvlaag: 13.3 m/s
74%
 05:49     21:32    Daglengte: 15:43 Vrijdag 26 Jul
00:00
17°
1003.2 hPa
79%
16.3°
7
Windvlaag: 14 m/s
72%
01:00
17°
1003.2 hPa
72%
16.3°
7
Windvlaag: 6.3 m/s
77%
02:00
17°
1003.6 hPa
83%
16.0°
6
Windvlaag: 11.5 m/s
83%
03:00
17°
1003.8 hPa
89%
15.7°
6
Windvlaag: 11.6 m/s
76%
04:00
17°
1004.2 hPa 6.4 mm
97%
15.5°
6
Windvlaag: 11.2 m/s
77%
05:00
16°
1004.2 hPa 6.5 mm
100%
15.3°
6
Windvlaag: 11.1 m/s
79%
06:00
16°
1004.4 hPa
92%
15.1°
6
Windvlaag: 11.2 m/s
85%
Temp/Neerslag /Baro Onweer/Dauwpunt
    Temp Baro Neerslag Dauwpunt Wind Bewolking  
 05:44     21:36    Daglengte: 15:52 Vandaag
07:00
17°
1015.1 hPa   16.0°
5
55%
10:00
18°
1015.0 hPa   15.6°
6
84%
13:00
19°
1013.9 hPa   15.6°
6
17%
16:00
19°
1012.0 hPa   15.9°
5
45%
19:00
18°
1010.2 hPa   16.0°
5
84%
22:00
17°
1009.5 hPa   15.9°
4
78%
 05:46     21:35    Daglengte: 15:49 Morgen
01:00
17°
1008.4 hPa   15.8°
4
80%
04:00
17°
1007.7 hPa 4.1 mm 15.6°
4
68%
07:00
16°
1008.4 hPa   15.5°
3
75%
10:00
18°
1009.8 hPa   14.8°
4
74%
13:00
18°
1009.9 hPa   15.2°
5
84%
16:00
18°
1009.5 hPa 3.5 mm 15.5°
6
89%
19:00
18°
1008.8 hPa 1.7 mm 15.5°
6
84%
22:00
17°
1008.2 hPa   15.7°
6
83%
 05:47     21:33    Daglengte: 15:46 Donderdag 25 Jul
01:00
17°
1006.8 hPa 3.8 mm 15.8°
7
73%
04:00
18°
1004.2 hPa 1.9 mm 16.6°
8
99%
07:00
18°
1003.3 hPa   17.1°
8
98%
10:00
18°
1002.9 hPa 10.4 mm 17.1°
9
100%
13:00
18°
1002.9 hPa 6.8 mm 16.8°
8
92%
16:00
19°
1002.6 hPa   16.3°
9
72%
19:00
18°
1002.5 hPa   16.4°
8
51%
22:00
18°
1002.9 hPa   16.3°
8
71%
 05:49     21:32    Daglengte: 15:43 Vrijdag 26 Jul
01:00
17°
1003.2 hPa   16.3°
7
77%
04:00
17°
1004.2 hPa 6.4 mm 15.5°
6
77%
07:00
16°
1004.9 hPa 19.7 mm 14.9°
5
93%
10:00
18°
1008.2 hPa 14.4 mm 14.2°
5
70%
13:00
19°
1009.6 hPa 14.6 mm 14.1°
5
62%
16:00
18°
1010.4 hPa 15.1 mm 13.3°
5
69%
19:00
17°
1011.2 hPa 15.5 mm 12.4°
4
75%
22:00
15°
1011.9 hPa 16.2 mm 12.2°
3
59%
 05:50     21:30    Daglengte: 15:40 Zaterdag 27 Jul
01:00
13°
1012.6 hPa 16.2 mm 11.8°
2
43%
04:00
12°
1012.6 hPa 16.2 mm 11.3°
2
24%
07:00
12°
1012.6 hPa 16.2 mm 10.8°
2
6%
10:00
15°
1012.6 hPa 16.3 mm 11.0°
3
30%
13:00
18°
1012.5 hPa 17.1 mm 10.5°
3
54%
16:00
18°
1012.4 hPa 17.5 mm 10.4°
4
45%
19:00
18°
1012.4 hPa 17.5 mm 10.1°
4
37%
22:00
15°
1013.3 hPa 17.5 mm 10.3°
4
18%
 05:52     21:29    Daglengte: 15:37 Zondag 28 Jul
01:00
12°
1014.0 hPa 17.5 mm 10.0°
4
0%
04:00
11°
1014.1 hPa 17.5 mm 9.4°
3
0%
07:00
11°
1014.2 hPa 17.5 mm 8.9°
3
1%
10:00
14°
1014.1 hPa 17.5 mm 9.1°
3
44%
13:00
17°
1013.9 hPa 17.6 mm 8.6°
2
87%
16:00
17°
1013.7 hPa 17.6 mm 9.0°
3
88%
19:00
16°
1013.6 hPa 17.6 mm 9.3°
4
90%
22:00
15°
1014.0 hPa 17.6 mm 10.3°
3
63%
 05:53     21:27    Daglengte: 15:34 Maandag 29 Jul
01:00
14°
1014.4 hPa 17.6 mm 11.1°
3
37%
04:00
15°
1013.9 hPa 17.6 mm 11.9°
4
64%
07:00
16°
1013.5 hPa 17.7 mm 12.6°
5
91%
10:00
17°
1013.9 hPa 17.7 mm 12.9°
6
66%
13:00
18°
1014.3 hPa 17.8 mm 13.1°
8
41%
16:00
18°
1013.9 hPa 18.0 mm 13.6°
7
66%
19:00
17°
1013.5 hPa 18.3 mm 14.1°
7
92%
22:00
16°
1013.9 hPa 18.6 mm 13.9°
6
63%
 05:54     21:26    Daglengte: 15:32 Dinsdag 30 Jul
01:00
16°
1014.3 hPa 18.6 mm 13.8°
5
35%
04:00
15°
1014.9 hPa   13.5°
5
23%
07:00
15°
1015.5 hPa 37.1 mm 13.3°
4
12%
13:00
18°
1017.5 hPa 37.1 mm 12.8°
7
28%
19:00
17°
1018.3 hPa 37.2 mm 13.0°
6
17%
 05:56     21:24    Daglengte: 15:28 Woensdag 31 Jul
01:00
15°
1018.9 hPa 37.2 mm 12.8°
4
23%
07:00
15°
1018.6 hPa 37.2 mm 12.4°
5
27%
13:00
17°
1019.2 hPa 37.3 mm 13.3°
6
88%
19:00
18°
1019.3 hPa 37.9 mm 13.6°
4
12%
 05:58     21:22    Daglengte: 15:24 Donderdag 01 Aug
01:00
13°
1021.2 hPa 38.0 mm 12.5°
2
2%
07:00
13°
1021.5 hPa 38.0 mm 12.5°
3
77%
13:00
18°
1021.3 hPa 38.8 mm 12.3°
5
92%
19:00
18°
1020.8 hPa 45.6 mm 15.0°
5
1%
 05:59     21:21    Daglengte: 15:22 Vrijdag 02 Aug
01:00
14°
1019.2 hPa 0.6 mm 11.9°
2
25%
07:00
14°
1018.3 hPa 0.3 mm 11.7°
1
30%
13:00
18°
1018.6 hPa 0.6 mm 13.6°
3
49%
19:00
18°
1017.9 hPa 1.1 mm 13.7°
2
48%
 06:01     21:19    Daglengte: 15:18 Zaterdag 03 Aug
01:00
14°
1018.3 hPa 0.2 mm 12.1°
2
36%
07:00
14°
1017.3 hPa 0.6 mm 11.6°
1
35%
13:00
18°
1017.4 hPa 0.7 mm 13.5°
2
40%
19:00
18°
1016.1 hPa 0.5 mm 14.1°
3
47%
 06:02     21:17    Daglengte: 15:15 Zondag 04 Aug
01:00
15°
1016.2 hPa 0.6 mm 12.4°
2
46%
07:00
14°
1015.1 hPa 0.7 mm 12.2°
2
42%
13:00
18°
1015.5 hPa 0.7 mm 13.4°
2
44%
19:00
18°
1014.7 hPa 0.9 mm 13.6°
3
45%
 06:04     21:16    Daglengte: 15:12 Maandag 05 Aug
01:00
14°
1015.4 hPa 0.1 mm 11.9°
2
35%
07:00
14°
1014.8 hPa 0.1 mm 11.7°
2
40%
13:00
18°
1015.0 hPa 0.3 mm 13.3°
2
40%
19:00
18°
1014.7 hPa 0.5 mm 13.5°
3
33%
 06:05     21:14    Daglengte: 15:09 Dinsdag 06 Aug
01:00
14°
1015.9 hPa 0.1 mm 11.7°
3
30%
07:00
14°
1015.6 hPa   11.3°
2
28%
13:00
18°
1016.3 hPa 0.1 mm 13.0°
2
31%
19:00
18°
1015.5 hPa 0.5 mm 13.8°
3
42%
 06:07     21:12    Daglengte: 15:05 Woensdag 07 Aug
01:00
14°
1015.9 hPa 0.6 mm 12.1°
2
41%
  CAPE Lifted Index Hail Supercell Tornado SRH 3km CL BTM PRES CL TOP PRES Swiss DWD icon SMHI TS
 05:44     21:36    Daglengte: 15:52 Vandaag
07:00 2 J/kg 4.3 K 0 % 0 % 0 % 0 m²/s² 0 0 6.49 3
08:00 2 J/kg 3.8 K 0 % 0 % 0 % 0 m²/s² 0 0 6.35 3
09:00 3 J/kg 3.3 K 0 % 0 % 0 % 0 m²/s² 0 0 6.87 3
10:00 3 J/kg 3.0 K 0 % 0 % 0 % 0 m²/s² 0 0 7.29 3
11:00 3 J/kg 2.9 K 0 % 0 % 0 % 0 m²/s² 0 0 6.77 2
12:00 1 J/kg 3.3 K 0 % 0 % 0 % 0 m²/s² 0 0 6.87 3
13:00 0 J/kg 3.3 K 0 % 0 % 0 % 0 m²/s² 0 0 7.92 2
14:00 0 J/kg 3.2 K 0 % 0 % 0 % 0 m²/s² 0 0 8.45 3
15:00 0 J/kg 3.2 K 0 % 0 % 0 % 0 m²/s² 0 0 8.48 2
16:00 0 J/kg 3.1 K 0 % 0 % 0 % 0 m²/s² 0 0 8.11 1
17:00 0 J/kg 3.2 K 0 % 0 % 0 % 0 m²/s² 0 0 7.82 3
18:00 0 J/kg 2.9 K 0 % 0 % 0 % 0 m²/s² 0 0 7.76 3
19:00 2 J/kg 2.3 K 0 % 0 % 0 % 0 m²/s² 0 0 7.55 3
20:00 6 J/kg 1.7 K 0 % 0 % 0 % 0 m²/s² 0 0 6.53 3
21:00 8 J/kg 1.0 K 0 % 0 % 0 % 0 m²/s² 0 0 3.37 3
22:00 7 J/kg 0.5 K 0 % 0 % 0 % 0 m²/s² 0 0 0.86 3
23:00 89 J/kg -1.0 K 0 % 0 % 0 % 0 m²/s² 0 0 -0.34 3
 05:46     21:35    Daglengte: 15:49 Morgen
00:00 175 J/kg -1.4 K 0 % 0 % 0 % 0 m²/s² 0 0 -1.01 3
01:00 247 J/kg -2.5 K 0 % 0 % 0 % 0 m²/s² 0 0 -1.81 3
02:00 316 J/kg -1.6 K 0 % 0 % 0 % 0 m²/s² 0 0 3.38 80
03:00 174 J/kg 1.7 K 0 % 0 % 0 % 0 m²/s² 0 0 7.55 3
04:00 25 J/kg 3.2 K 0 % 0 % 0 % 0 m²/s² 0 0 9.26 3
05:00 17 J/kg 3.2 K 0 % 0 % 0 % 0 m²/s² 0 0 9.47 2
06:00 14 J/kg 3.3 K 0 % 0 % 0 % 0 m²/s² 0 0 10.17 2
07:00 11 J/kg 3.8 K 0 % 0 % 0 % 0 m²/s² 0 0 10.7 2
08:00 11 J/kg 4.4 K 0 % 0 % 0 % 0 m²/s² 0 0 12.05 2
09:00 14 J/kg 5.4 K 0 % 0 % 0 % 0 m²/s² 0 0 13.92 3
10:00 43 J/kg 5.2 K 0 % 0 % 0 % 0 m²/s² 0 0 13.09 3
11:00 24 J/kg 4.7 K 0 % 0 % 0 % 0 m²/s² 0 0 12.05 3
12:00 35 J/kg 4.3 K 0 % 0 % 0 % 0 m²/s² 0 0 11.41 3
13:00 33 J/kg 5.3 K 0 % 0 % 0 % 0 m²/s² 0 0 9.44 3
14:00 102 J/kg 5.2 K 0 % 0 % 0 % 0 m²/s² 0 0 8.74 3
15:00 93 J/kg 5.0 K 0 % 0 % 0 % 0 m²/s² 0 0 8.48 3
16:00 103 J/kg 5.0 K 0 % 0 % 0 % 0 m²/s² 0 0 7.94 3
17:00 79 J/kg 4.5 K 0 % 0 % 0 % 0 m²/s² 0 0 7.14 3
18:00 67 J/kg 4.0 K 0 % 0 % 0 % 0 m²/s² 0 0 6.4 3
19:00 53 J/kg 3.8 K 0 % 0 % 0 % 0 m²/s² 0 0 4.97 3
20:00 88 J/kg 3.2 K 0 % 0 % 0 % 0 m²/s² 0 0 3.77 3
21:00 46 J/kg 3.4 K 0 % 0 % 0 % 0 m²/s² 0 0 3.76 3
22:00 23 J/kg 3.2 K 0 % 0 % 0 % 0 m²/s² 0 0 3.68 3
23:00 48 J/kg 2.4 K 0 % 0 % 0 % 0 m²/s² 0 0 3.12 3
 05:47     21:33    Daglengte: 15:46 Donderdag 25 Jul
00:00 75 J/kg 1.6 K 0 % 0 % 0 % 0 m²/s² 0 0 2.14 3
01:00 66 J/kg 1.7 K 0 % 0 % 0 % 0 m²/s² 0 0 2 3
02:00 83 J/kg 1.4 K 0 % 0 % 0 % 0 m²/s² 0 0 1.4 3
03:00 78 J/kg 1.3 K 0 % 0 % 0 % 0 m²/s² 0 0 1.66 3
04:00 43 J/kg 1.1 K 0 % 0 % 0 % 0 m²/s² 0 0 1.46 3
05:00 6 J/kg 0.9 K 0 % 0 % 0 % 0 m²/s² 0 0 0.99 3
06:00 16 J/kg 0.8 K 0 % 0 % 0 % 0 m²/s² 0 0 1.01 3
07:00 36 J/kg 0.6 K 0 % 0 % 0 % 0 m²/s² 0 0 1.32 3
08:00 66 J/kg 0.0 K 0 % 0 % 0 % 0 m²/s² 0 0 4.35 3
09:00 148 J/kg 0.2 K 0 % 0 % 0 % 0 m²/s² 0 0 5.69 3
10:00 184 J/kg 0.0 K 0 % 0 % 0 % 0 m²/s² 0 0 5.19 3
11:00 269 J/kg -0.1 K 0 % 0 % 0 % 0 m²/s² 0 0 4.7 3
12:00 304 J/kg -0.3 K 0 % 0 % 0 % 0 m²/s² 0 0 4.65 3
13:00 265 J/kg 0.0 K 0 % 0 % 0 % 0 m²/s² 0 0 6.27 3
14:00 276 J/kg 0.4 K 0 % 0 % 0 % 0 m²/s² 0 0 10.42 3
15:00 198 J/kg 0.9 K 0 % 0 % 0 % 0 m²/s² 0 0 10.92 3
16:00 132 J/kg 1.7 K 0 % 0 % 0 % 0 m²/s² 0 0 11.72 2
17:00 98 J/kg 2.2 K 0 % 0 % 0 % 0 m²/s² 0 0 10.66 2
18:00 93 J/kg 2.3 K 0 % 0 % 0 % 0 m²/s² 0 0 9.38 3
19:00 77 J/kg 2.6 K 0 % 0 % 0 % 0 m²/s² 0 0 8.87 2
20:00 76 J/kg 2.5 K 0 % 0 % 0 % 0 m²/s² 0 0 6.94 2
21:00 66 J/kg 2.5 K 0 % 0 % 0 % 0 m²/s² 0 0 5.68 3
22:00 70 J/kg 2.0 K 0 % 0 % 0 % 0 m²/s² 0 0 4.76 3
23:00 85 J/kg 1.6 K 0 % 0 % 0 % 0 m²/s² 0 0 3.79 2
 05:49     21:32    Daglengte: 15:43 Vrijdag 26 Jul
00:00 96 J/kg 0.9 K 0 % 0 % 0 % 0 m²/s² 0 0 2.94 2
01:00 87 J/kg 1.0 K 0 % 0 % 0 % 0 m²/s² 0 0 2.92 3
02:00 72 J/kg 1.3 K 0 % 0 % 0 % 0 m²/s² 0 0 3.4 3
03:00 72 J/kg 1.9 K 0 % 0 % 0 % 0 m²/s² 0 0 4.09 3
04:00 66 J/kg 2.0 K 0 % 0 % 0 % 0 m²/s² 0 0 4.4 3
05:00 59 J/kg 1.8 K 0 % 0 % 0 % 0 m²/s² 0 0 4.65 3
06:00 63 J/kg 1.5 K 0 % 0 % 0 % 0 m²/s² 0 0 4.2 3
Temp Baro Wind Neerslag
  EWN Forecast EWN WRFDA DWD ICON FMI HIRLAM MET Norway GFS
 05:44     21:36    Daglengte: 15:52 Vandaag
07:00 16.9° 1015.1 hPa 5.4 m/s 0.0 mm 17.1° 1014.3 hPa 5.7 m/s 0.0 mm 16.7° 1015.2 hPa 4.7 m/s -1.9 mm 17.1° 1015.1 hPa 6.2 m/s 0.0 mm 16.7° 1014.9 hPa 5.0 m/s 0.0 mm 16.6° 1014.5 hPa 6.4 m/s
10:00 17.8° 1015.0 hPa 6.4 m/s 0.0 mm 19.1° 1013.9 hPa 7.0 m/s 0.0 mm 17.5° 1015.4 hPa 6.1 m/s 0.0 mm 17.7° 1014.8 hPa 7.5 m/s 0.0 mm 17.9° 1015.1 hPa 6.3 m/s 0.3 mm 18.2° 1014.3 hPa 7.2 m/s
13:00 18.9° 1013.9 hPa 5.6 m/s 0.0 mm 20.3° 1013.6 hPa 7.2 m/s 0.0 mm 18.8° 1014.3 hPa 5.8 m/s 0.0 mm 18.8° 1013.2 hPa 5.9 m/s 0.0 mm 19.3° 1014.0 hPa 4.9 m/s 0.0 mm 19.1° 1013.4 hPa 6.9 m/s
16:00 19.0° 1012.0 hPa 5.4 m/s 0.0 mm 20.0° 1012.2 hPa 6.2 m/s 0.0 mm 19.4° 1012.8 hPa 5.0 m/s 0.0 mm 18.9° 1011.2 hPa 5.6 m/s 0.0 mm 19.1° 1011.8 hPa 5.0 m/s 0.0 mm 19.0° 1011.9 hPa 6.2 m/s
19:00 18.0° 1010.2 hPa 5.1 m/s 0.0 mm 18.5° 1010.4 hPa 5.4 m/s 0.0 mm 18.4° 1010.9 hPa 5.0 m/s 0.0 mm 17.7° 1009.1 hPa 5.8 m/s 0.0 mm 18.0° 1010.2 hPa 4.5 m/s 0.3 mm 17.8° 1010.3 hPa 5.3 m/s
22:00 16.9° 1009.5 hPa 3.8 m/s 0.0 mm 16.9° 1009.8 hPa 3.4 m/s 0.0 mm 16.8° 1010.5 hPa 3.1 m/s 0.0 mm 17.2° 1008.2 hPa 5.9 m/s 0.0 mm 16.7° 1009.2 hPa 3.4 m/s 0.0 mm 16.2° 1009.8 hPa 3.6 m/s
 05:46     21:35    Daglengte: 15:49 Morgen
01:00 16.9° 1008.4 hPa 4.3 m/s 0.0 mm 16.9° 1008.3 hPa 4.2 m/s 5.0 mm 16.7° 1009.2 hPa 3.5 m/s 0.0 mm 17.6° 1007.9 hPa 6.9 m/s 0.0 mm 16.5° 1008.3 hPa 3.7 m/s 0.7 mm 15.9° 1009.3 hPa 4.1 m/s
04:00 16.6° 1007.7 hPa 3.9 m/s 4.1 mm 16.9° 1006.8 hPa 4.4 m/s 19.5 mm 17.1° 1008.0 hPa 3.6 m/s 0.8 mm 15.9° 1008.1 hPa 4.9 m/s 0.0 mm 16.2° 1007.3 hPa 2.2 m/s 0.5 mm 16.4° 1007.9 hPa 4.5 m/s
07:00 16.3° 1008.4 hPa 2.6 m/s 0.0 mm 16.9° 1006.9 hPa 5.4 m/s 20.8 mm 16.4° 1008.5 hPa 2.9 m/s 0.0 mm 16.3° 1009.6 hPa 2.7 m/s 0.0 mm 16.2° 1007.8 hPa 0.7 m/s 0.4 mm 16.5° 1008.0 hPa 4.1 m/s
10:00 17.7° 1009.8 hPa 3.9 m/s 0.0 mm 17.1° 1008.6 hPa 4.1 m/s 21.3 mm 18.2° 1009.9 hPa 4.0 m/s 0.0 mm 18.2° 1010.2 hPa 4.8 m/s 0.0 mm 17.8° 1009.8 hPa 3.8 m/s 0.0 mm 17.3° 1008.6 hPa 5.3 m/s
13:00 18.4° 1009.9 hPa 5.5 m/s 0.0 mm 18.0° 1008.8 hPa 6.0 m/s 21.7 mm 18.9° 1009.7 hPa 5.7 m/s 0.0 mm 18.0° 1010.6 hPa 6.1 m/s 0.0 mm 18.8° 1010.0 hPa 4.6 m/s 0.0 mm 17.9° 1008.6 hPa 5.7 m/s
16:00 18.3° 1009.5 hPa 5.6 m/s 3.5 mm 18.3° 1008.9 hPa 6.5 m/s 22.3 mm 18.4° 1009.6 hPa 5.4 m/s 0.0 mm 17.6° 1010.6 hPa 5.5 m/s 0.0 mm 18.5° 1009.5 hPa 5.5 m/s 0.7 mm 17.7° 1008.5 hPa 6.4 m/s
19:00 17.6° 1008.8 hPa 5.6 m/s 1.7 mm 17.5° 1007.0 hPa 5.9 m/s 22.9 mm 18.1° 1008.7 hPa 5.5 m/s 0.0 mm 17.2° 1010.3 hPa 5.5 m/s 0.0 mm 17.7° 1009.0 hPa 6.0 m/s 1.0 mm 17.2° 1007.2 hPa 6.1 m/s
22:00 17.0° 1008.2 hPa 6.2 m/s 0.0 mm 16.7° 1007.0 hPa 6.1 m/s 23.4 mm 17.4° 1007.8 hPa 5.5 m/s 0.0 mm 17.0° 1010.3 hPa 6.2 m/s 0.0 mm 17.0° 1008.2 hPa 6.1 m/s 0.6 mm 16.6° 1006.9 hPa 7.0 m/s
 05:47     21:33    Daglengte: 15:46 Donderdag 25 Jul
01:00 17.2° 1006.8 hPa 7.3 m/s 3.8 mm 17.5° 1005.1 hPa 6.4 m/s 24.6 mm 17.6° 1006.6 hPa 6.6 m/s 0.3 mm 17.0° 1009.4 hPa 7.6 m/s 0.0 mm 17.0° 1006.7 hPa 7.1 m/s 0.0 mm 17.2° 1005.1 hPa 6.6 m/s
04:00 17.7° 1004.2 hPa 8.4 m/s 1.9 mm 17.6° 1003.1 hPa 9.7 m/s 26.1 mm 18.0° 1005.4 hPa 8.3 m/s 0.0 mm 17.6° 1004.2 hPa 7.4 m/s 0.4 mm 17.2° 1003.3 hPa 8.9 m/s
07:00 17.8° 1003.3 hPa 8.5 m/s 0.0 mm 17.4° 1002.3 hPa 8.3 m/s 37.7 mm 18.1° 1004.9 hPa 8.3 m/s 0.0 mm 17.9° 1003.0 hPa 7.9 m/s 0.8 mm 17.0° 1002.0 hPa 10.0 m/s
10:00 18.0° 1002.9 hPa 8.5 m/s 10.4 mm 18.2° 1002.6 hPa 8.3 m/s 41.3 mm 18.2° 1005.1 hPa 8.9 m/s 0.0 mm 18.0° 1002.5 hPa 7.6 m/s 4.0 mm 17.8° 1002.3 hPa 10.1 m/s
13:00 18.4° 1002.9 hPa 8.4 m/s 6.8 mm 18.1° 1002.5 hPa 7.5 m/s 44.5 mm 18.4° 1005.1 hPa 7.5 m/s 0.1 mm 19.0° 1002.4 hPa 8.4 m/s 1.2 mm 18.4° 1002.1 hPa 9.4 m/s
16:00 19.3° 1002.6 hPa 8.5 m/s 0.0 mm 19.6° 1002.2 hPa 9.8 m/s 47.6 mm 19.6° 1004.9 hPa 7.0 m/s 0.0 mm 19.3° 1002.3 hPa 8.6 m/s 0.7 mm 18.2° 1001.9 hPa 9.7 m/s
19:00 18.3° 1002.5 hPa 8.2 m/s 0.0 mm 18.1° 1002.2 hPa 8.6 m/s 49.2 mm 18.8° 1005.0 hPa 6.5 m/s 0.1 mm 18.3° 1001.9 hPa 8.4 m/s 1.1 mm 17.4° 1001.8 hPa 10.2 m/s
22:00 17.6° 1002.9 hPa 7.5 m/s 0.0 mm 17.2° 1002.8 hPa 9.0 m/s 51.3 mm 17.9° 1005.6 hPa 6.2 m/s 0.1 mm 17.6° 1002.5 hPa 7.2 m/s 16.8° 1002.7 hPa 9.5 m/s
 05:49     21:32    Daglengte: 15:43 Vrijdag 26 Jul
01:00 17.2° 1003.2 hPa 6.8 m/s 0.0 mm 17.1° 1002.6 hPa 7.0 m/s 54.1 mm 17.6° 1005.1 hPa 6.5 m/s 0.1 mm 16.9° 1003.1 hPa 6.0 m/s 16.4° 1002.3 hPa 6.8 m/s
04:00 16.6° 1004.2 hPa 6.1 m/s 6.4 mm 16.6° 1002.9 hPa 6.6 m/s 56.1 mm 17.4° 1004.3 hPa 7.2 m/s 0.3 mm 16.4° 1004.3 hPa 5.3 m/s 16.3° 1002.8 hPa 7.5 m/s
07:00 16.2° 1004.9 hPa 5.5 m/s 19.7 mm 16.4° 1003.6 hPa 7.4 m/s 58.0 mm 17.2° 1004.4 hPa 6.0 m/s 0.5 mm 15.8° 1005.5 hPa 4.7 m/s 16.3° 1003.6 hPa 8.1 m/s
10:00 17.7° 1008.2 hPa 5.3 m/s 14.4 mm 17.8° 1008.4 hPa 5.0 m/s 17.0° 1005.2 hPa 8.3 m/s 14.4 mm
13:00 18.8° 1009.6 hPa 5.4 m/s 14.6 mm 18.8° 1009.9 hPa 5.2 m/s 18.2° 1006.4 hPa 7.7 m/s 14.6 mm
16:00 17.9° 1010.4 hPa 4.5 m/s 15.1 mm 17.9° 1010.7 hPa 4.3 m/s 18.3° 1007.3 hPa 6.7 m/s 15.1 mm
19:00 17.1° 1011.2 hPa 3.7 m/s 15.5 mm 17.0° 1011.5 hPa 3.5 m/s 17.6° 1008.2 hPa 6.3 m/s 15.5 mm
22:00 14.9° 1011.9 hPa 2.7 m/s 16.2 mm 14.9° 1012.1 hPa 2.6 m/s 15.3° 1009.7 hPa 3.5 m/s 16.2 mm
 05:50     21:30    Daglengte: 15:40 Zaterdag 27 Jul
01:00 12.9° 1012.6 hPa 1.8 m/s 16.2 mm 12.8° 1012.8 hPa 1.7 m/s 14.4° 1010.2 hPa 3.1 m/s 16.2 mm
04:00 12.4° 1012.6 hPa 2.0 m/s 16.2 mm 12.3° 1012.8 hPa 2.0 m/s 13.5° 1010.1 hPa 2.5 m/s 16.2 mm
07:00 11.9° 1012.6 hPa 2.4 m/s 16.2 mm 11.8° 1012.8 hPa 2.3 m/s 13.5° 1010.5 hPa 2.9 m/s 16.2 mm
10:00 14.9° 1012.6 hPa 2.8 m/s 16.3 mm 14.8° 1012.7 hPa 2.8 m/s 16.3° 1011.0 hPa 3.2 m/s 16.3 mm
13:00 17.7° 1012.5 hPa 3.3 m/s 17.1 mm 17.8° 1012.6 hPa 3.2 m/s 16.5° 1011.2 hPa 4.2 m/s 17.1 mm
16:00 17.8° 1012.4 hPa 3.7 m/s 17.5 mm 17.8° 1012.5 hPa 3.5 m/s 17.6° 1011.3 hPa 5.5 m/s 17.5 mm
19:00 17.7° 1012.4 hPa 4.1 m/s 17.5 mm 17.8° 1012.5 hPa 3.9 m/s 16.4° 1011.1 hPa 6.9 m/s 17.5 mm
22:00 14.8° 1013.3 hPa 3.9 m/s 17.5 mm 14.9° 1013.4 hPa 3.6 m/s 13.6° 1012.4 hPa 6.7 m/s 17.5 mm
 05:52     21:29    Daglengte: 15:37 Zondag 28 Jul
01:00 12.0° 1014.0 hPa 3.6 m/s 17.5 mm 12.0° 1014.2 hPa 3.4 m/s 12.3° 1012.4 hPa 6.2 m/s 17.5 mm
04:00 11.4° 1014.1 hPa 3.3 m/s 17.5 mm 11.3° 1014.3 hPa 3.1 m/s 13.0° 1012.1 hPa 5.9 m/s 17.5 mm
07:00 10.8° 1014.2 hPa 3.1 m/s 17.5 mm 10.6° 1014.4 hPa 2.8 m/s 12.9° 1012.6 hPa 6.4 m/s 17.5 mm
10:00 13.9° 1014.1 hPa 2.6 m/s 17.5 mm 13.9° 1014.1 hPa 2.2 m/s 14.2° 1013.6 hPa 6.6 m/s 17.5 mm
13:00 17.2° 1013.9 hPa 2.0 m/s 17.6 mm 17.2° 1013.9 hPa 1.7 m/s 16.8° 1014.5 hPa 5.7 m/s 17.6 mm
16:00 16.7° 1013.7 hPa 3.0 m/s 17.6 mm 16.6° 1013.6 hPa 2.8 m/s 17.0° 1014.8 hPa 5.8 m/s 17.6 mm
19:00 16.1° 1013.6 hPa 3.9 m/s 17.6 mm 16.1° 1013.4 hPa 3.8 m/s 15.7° 1015.4 hPa 5.4 m/s 17.6 mm
22:00 14.9° 1014.0 hPa 3.3 m/s 17.6 mm 15.2° 1013.8 hPa 3.2 m/s 12.2° 1017.2 hPa 4.6 m/s 17.6 mm
 05:53     21:27    Daglengte: 15:34 Maandag 29 Jul
01:00 13.9° 1014.4 hPa 2.7 m/s 17.6 mm 14.2° 1014.1 hPa 2.6 m/s 10.5° 1018.2 hPa 4.2 m/s 17.6 mm
04:00 14.8° 1013.9 hPa 3.9 m/s 17.6 mm 15.2° 1013.5 hPa 3.8 m/s 11.2° 1018.2 hPa 4.5 m/s 17.6 mm
07:00 15.8° 1013.5 hPa 5.0 m/s 17.7 mm 16.1° 1013.0 hPa 5.1 m/s 12.1° 1018.9 hPa 4.1 m/s 17.7 mm
10:00 17.0° 1013.9 hPa 6.3 m/s 17.7 mm 17.3° 1013.4 hPa 6.5 m/s 14.0° 1019.9 hPa 3.7 m/s 17.7 mm
13:00 18.3° 1014.3 hPa 7.5 m/s 17.8 mm 18.5° 1013.7 hPa 7.9 m/s 16.0° 1020.8 hPa 3.4 m/s 17.8 mm
16:00 17.7° 1013.9 hPa 7.0 m/s 18.0 mm 17.8° 1013.2 hPa 7.4 m/s 16.6° 1021.3 hPa 2.9 m/s 18.0 mm
19:00 17.0° 1013.5 hPa 6.5 m/s 18.3 mm 17.1° 1012.7 hPa 6.9 m/s 16.5° 1021.9 hPa 2.6 m/s 18.3 mm
22:00 16.3° 1013.9 hPa 5.8 m/s 18.6 mm 16.6° 1013.0 hPa 5.9 m/s 12.9° 1023.6 hPa 4.2 m/s 18.6 mm
 05:54     21:26    Daglengte: 15:32 Dinsdag 30 Jul
01:00 15.7° 1014.3 hPa 4.9 m/s 18.6 mm 16.1° 1013.4 hPa 4.9 m/s 11.0° 1024.1 hPa 4.4 m/s 18.6 mm
04:00 15.5° 1014.9 hPa 4.7 m/s 18.6 mm 15.9° 1014.0 hPa 4.8 m/s 10.7° 1024.3 hPa 3.7 m/s 18.6 mm
07:00 15.3° 1015.5 hPa 4.4 m/s 18.6 mm 15.7° 1014.6 hPa 4.6 m/s 11.2° 1025.1 hPa 2.7 m/s 18.6 mm
13:00 17.7° 1017.5 hPa 7.2 m/s 18.6 mm 17.9° 1016.7 hPa 7.7 m/s 15.3° 1026.8 hPa 2.2 m/s 18.6 mm
19:00 17.2° 1018.3 hPa 6.2 m/s 18.6 mm 17.2° 1017.5 hPa 6.3 m/s 16.9° 1026.8 hPa 4.8 m/s 18.6 mm
 05:56     21:24    Daglengte: 15:28 Woensdag 31 Jul
01:00 15.0° 1018.9 hPa 4.2 m/s 18.6 mm 15.2° 1018.1 hPa 4.3 m/s 13.2° 1027.6 hPa 3.2 m/s 18.6 mm
07:00 15.2° 1018.6 hPa 4.7 m/s 18.6 mm 15.4° 1017.9 hPa 4.9 m/s 13.1° 1026.8 hPa 2.1 m/s 18.6 mm
13:00 16.9° 1019.2 hPa 6.2 m/s 18.7 mm 16.8° 1018.5 hPa 6.4 m/s 18.0° 1026.8 hPa 3.8 m/s 18.7 mm
19:00 18.2° 1019.3 hPa 4.4 m/s 19.0 mm 18.2° 1018.7 hPa 4.3 m/s 17.8° 1025.4 hPa 4.9 m/s 19.0 mm
 05:58     21:22    Daglengte: 15:24 Donderdag 01 Aug
01:00 13.5° 1021.2 hPa 2.2 m/s 19.0 mm 13.5° 1020.9 hPa 2.1 m/s 13.3° 1024.9 hPa 3.1 m/s 19.0 mm
07:00 13.4° 1021.5 hPa 2.6 m/s 19.0 mm 13.3° 1021.4 hPa 2.4 m/s 14.3° 1022.5 hPa 4.5 m/s 19.0 mm
13:00 18.3° 1021.3 hPa 4.9 m/s 19.8 mm 18.4° 1021.2 hPa 5.0 m/s 17.0° 1022.4 hPa 4.2 m/s 19.8 mm
19:00 18.1° 1020.8 hPa 5.5 m/s 23.6 mm 18.1° 1020.8 hPa 5.5 m/s 23.6 mm
 05:59     21:21    Daglengte: 15:22 Vrijdag 02 Aug
01:00 14.2° 1019.2 hPa 1.8 m/s 0.6 mm
07:00 14.0° 1018.3 hPa 1.4 m/s 0.3 mm
13:00 17.8° 1018.6 hPa 2.8 m/s 0.6 mm
19:00 17.8° 1017.9 hPa 2.4 m/s 1.1 mm
 06:01     21:19    Daglengte: 15:18 Zaterdag 03 Aug
01:00 14.4° 1018.3 hPa 1.6 m/s 0.2 mm
07:00 13.9° 1017.3 hPa 1.4 m/s 0.6 mm
13:00 18.1° 1017.4 hPa 2.4 m/s 0.7 mm
19:00 18.0° 1016.1 hPa 3.0 m/s 0.5 mm
 06:02     21:17    Daglengte: 15:15 Zondag 04 Aug
01:00 14.7° 1016.2 hPa 2.4 m/s 0.6 mm
07:00 14.3° 1015.1 hPa 2.1 m/s 0.7 mm
13:00 17.8° 1015.5 hPa 2.4 m/s 0.7 mm
19:00 17.7° 1014.7 hPa 2.8 m/s 0.9 mm
 06:04     21:16    Daglengte: 15:12 Maandag 05 Aug
01:00 14.4° 1015.4 hPa 2.5 m/s 0.1 mm
07:00 14.0° 1014.8 hPa 1.8 m/s 0.1 mm
13:00 18.0° 1015.0 hPa 2.2 m/s 0.3 mm
19:00 17.9° 1014.7 hPa 3.3 m/s 0.5 mm
 06:05     21:14    Daglengte: 15:09 Dinsdag 06 Aug
01:00 14.4° 1015.9 hPa 2.8 m/s 0.1 mm
07:00 13.6° 1015.6 hPa 2.4 m/s 0.0 mm
13:00 17.9° 1016.3 hPa 2.5 m/s 0.1 mm
19:00 17.9° 1015.5 hPa 3.0 m/s 0.5 mm
 06:07     21:12    Daglengte: 15:05 Woensdag 07 Aug
01:00 14.4° 1015.9 hPa 2.2 m/s 0.6 mm
FMI Hirlam - 7.5 km EWN WRFDA - 12 km DWD ICON - 7 km GFS - 25 km Basiskaart






























































Updatetijd (Europe/Amsterdam) Resolutie Lengte Stap
FMI Hirlam 07:00, 13:00, 19:00, 01:00 7.5 km 49h 1h
EWN WRFDA 04:00, 10:00, 16:00, 22:00 12 km 73h 1h
DWD ICON 05:45, 11:45, 17:45, 23:45 7 km 75h 1h
GFS 02:30, 08:30, 14:30, 20:30 25 km 237h 3h
30+ mm
25-30 mm
20-25 mm
15-20 mm
10-15 mm
6-10 mm
4-6 mm
2-4 mm
1-2 mm
0.5-1 mm
0.2-0.5 mm
0.1-0.2 mm
30+ mm
25-30 mm
20-25 mm
15-20 mm
10-15 mm
6-10 mm
4-6 mm
2-4 mm
1-2 mm
0.5-1 mm
0.2-0.5 mm
0.1-0.2 mm
Sneeuwval
Natte sneeuw
Hagel
Vorst
30+ mm
25-30 mm
20-25 mm
15-20 mm
10-15 mm
6-10 mm
4-6 mm
2-4 mm
1-2 mm
0.5-1 mm
0.2-0.5 mm
0.1-0.2 mm
Sneeuwval
Natte sneeuw
Hagel
Vorst
Onweer
50 mm
40 mm
30 mm
26 mm
22 mm
18 mm
14 mm
10 mm
9 mm
8 mm
7 mm
6 mm
5 mm
4.5 mm
4 mm
3.5 mm
3 mm
2.5 mm
2 mm
1.5 mm
1 mm
0.8 mm
0.6 mm
0.4 mm
0.2 mm
0.05 mm
35°
30°
25°
20°
15°
10°
-5°
-10°
-15°
-20°
-25°
-30°
-35°
33> m/s
29 m/s
25 m/s
21 m/s
17 m/s
14 m/s
11 m/s
8 m/s
5 m/s
3 m/s
0 m/s
2600 J/kg
2400 J/kg
2200 J/kg
2000 J/kg
1800 J/kg
1600 J/kg
1400 J/kg
1200 J/kg
1000 J/kg
800 J/kg
600 J/kg
400 J/kg
200 J/kg
70 dBZ
65 dBZ
60 dBZ
55 dBZ
50 dBZ
45 dBZ
40 dBZ
35 dBZ
30 dBZ
25 dBZ
20 dBZ
15 dBZ
10 dBZ
5 dBZ
-1 K
-2 K
-3 K
-4 K
-5 K
-6 K
-7 K
-8 K
-9 K
950 m²/s²
900 m²/s²
850 m²/s²
800 m²/s²
750 m²/s²
700 m²/s²
650 m²/s²
600 m²/s²
550 m²/s²
500 m²/s²
450 m²/s²
400 m²/s²
350 m²/s²
300 m²/s²
250 m²/s²
200 m²/s²
150 m²/s²
100 m²/s²
46 m/s
44 m/s
42 m/s
40 m/s
38 m/s
36 m/s
34 m/s
32 m/s
30 m/s
28 m/s
26 m/s
24 m/s
22 m/s
20 m/s
16 m/s
12 m/s
8 m/s
4 m/s
30 m/s
28 m/s
26 m/s
24 m/s
22 m/s
20 m/s
18 m/s
16 m/s
14 m/s
12 m/s
10 m/s
8 m/s
6 m/s
4 m/s
2 m/s
3.0
2.8
2.6
2.4
2.2
2.0
1.8
1.6
1.4
1.2
1.0
0.8
0.6
0.4
0.2
15
14
13
12
11
10
9
8
7
6
5
4
3
2
1
90%
80%
70%
60%
50%
40%
30%
20%
10%
42
40
38
36
34
32
30
28
26
24
22
20
18
16
14
12
90+ cm
80-90 cm
70-80 cm
60-70 cm
50-60 cm
40-50 cm
30-40 cm
20-30 cm
10-20 cm
1-10 cm
Sneeuwval
Natte sneeuw
Regen
>120 mm
115 mm
110 mm
105 mm
100 mm
95 mm
90 mm
85 mm
80 mm
75 mm
70 mm
65 mm
60 mm
55 mm
50 mm
45 mm
45 mm
40 mm
35 mm
30 mm
25 mm
20 mm
15 mm
10 mm
5 mm
0.1 mm
960 hPa
880 hPa
800 hPa
720 hPa
640 hPa
560 hPa
584 gpdm
568 gpdm
552 gpdm
536 gpdm
520 gpdm
504 gpdm
488 gpdm